Αρχική σελίδα
METAR-TAF:

METAR-TAF

Αεροδρόμια :

Imperial Municipal Airport

Imperial, Νεμπράσκα, Ηνωμένες Πολιτείες Αμερικής

γεωγραφικό πλάτος: 40-31N, γεωγραφικό μήκος: 101-37W, υψόμετρο: 997 μ

Παρών καιρός

Η αναφορά έγινε 37 λεπτά πριν, στις 14:53 UTC
Άνεμος 5 kt από Ν/NA
Θερμοκρασία -2°C
Υγρασία 80%
Πίεση 1029 hPa
Ορατότητα: 16.1 χλμ
Καθαρός ουρανός

METAR: KIML 181453Z AUTO 16005KT 10SM CLR M02/M05 A3039 RMK AO2 SLP320 T10171050 53002

Χρόνος: 09:30 (15:30 UTC)


TAF: λείπει

Μετεωρολογικές αναφορές και προγνώσεις για περισσότερα από 4000 αεροδρόμια (δελτία METAR και TAF).

Οι διαθέσιμοι σταθμοί απεικονίζονται στο χάρτη με κίτρινες και κόκκινες κουκκίδες.

Μετακινήστε το ποντίκι πάνω από τις κουκκίδες για να δείτε το όνομα του σταθμού.

Στη συνέχεια, κάντε κλικ για να δείτε τις μετεωρολογικές αναφορές και τις προγνώσεις καιρού.

Για να αλλάξετε το χάρτη: κάντε κλικ στα πράσινα κουμπιά με τον μαύρο σταυρό για να ζουμάρετε, στο πράσινο κουμπί με την παύλα για να αφαιρέσετε το ζουμ ή στα πράσινα βέλη για να αντιπαραβάλλετε χάρτες.


METAR-TAF: